Spokane Fairchild, WA

12:26 PM PDT on April 28, 2017 (GMT -0700)
Fairchild Air Force Base

Weather History for KSKA - December, 2013

Change the Weather History Date:

Monday, December 23, 2013

  Actual Average Record
Temperature  
Mean Temperature 34 °F -  
Max Temperature 39 °F 30 °F 39 °F (2005)
Min Temperature 28 °F 21 °F 0 °F (2008)
Degree Days  
Heating Degree Days 30    
Moisture  
Dew Point 35 °F    
Average Humidity 99    
Maximum Humidity 100    
Minimum Humidity 87    
Precipitation  
Precipitation 0.06 in - - ()
Snow  
Snow 0.00 in - - ()
Snow Depth 1.00 in    
Sea Level Pressure  
Sea Level Pressure 30.11 in    
Wind  
Wind Speed 9 mph (South)    
Max Wind Speed 21 mph    
Max Gust Speed 29 mph    
Visibility 4 miles    
Events Fog , Rain , Snow    
Averages and records for this station are not official NWS values.
T = Trace of Precipitation, MM = Missing Value Source: NWS Daily Summary

Daily Weather History Graph

Daily Weather History Graph

Search for Another Location

Airport or City:

Trip Planner

Search our weather history database for the weather conditions in past years. The results will help you decide how hot, cold, wet, or windy it might be!

Date:

Astronomy

Dec. 23, 2013 Rise Set
Actual Time 7:37 AM PST 4:02 PM PST
Civil Twilight 7:01 AM PST 4:38 PM PST
Nautical Twilight 6:21 AM PST 5:18 PM PST
Astronomical Twilight 5:44 AM PST 5:55 PM PST
Moon 10:42 PM PST (12/23) 10:41 AM PST (12/23)
Length of Visible Light 9h 37m
Length of Day
8h 25m
Waning Gibbous, 67% of the Moon is Illuminated
Dec 23
Waning Gibbous
Dec 25
Last Quarter
Jan 1
New
Jan 7
First Quarter
Jan 15
Full

Hourly Weather History & Observations

Time (PST) Temp. Windchill Dew Point Humidity Pressure Visibility Wind Dir Wind Speed Gust Speed Precip Events Conditions
12:08 AM 32.0 °F - 32.0 °F 100% 30.20 in 0.2 mi Calm Calm - N/A Fog , Rain Light Rain
12:09 AM 32.0 °F - 32.0 °F 100% 30.20 in 0.2 mi Calm Calm - N/A Fog , Rain Light Rain
12:21 AM 32.0 °F 27.5 °F 32.0 °F 100% 30.19 in 0.5 mi ESE 4.6 mph - N/A Fog , Rain Light Rain
12:31 AM 32.0 °F 26.4 °F 32.0 °F 100% 30.18 in 0.5 mi SE 5.8 mph - N/A Fog , Rain Light Rain
12:33 AM 32.0 °F 26.4 °F 32.0 °F 100% 30.18 in 0.5 mi SE 5.8 mph - N/A Fog , Rain Light Rain
12:35 AM 32.0 °F 26.4 °F 32.0 °F 100% 30.18 in 0.8 mi SE 5.8 mph - N/A Rain Light Rain
12:36 AM 32.0 °F 26.4 °F 32.0 °F 100% 30.19 in 0.8 mi SE 5.8 mph - N/A Rain Light Rain
12:38 AM 32.0 °F 26.4 °F 32.0 °F 100% 30.19 in 1.0 mi SE 5.8 mph - N/A Rain Light Rain
12:40 AM 32.0 °F 26.4 °F 32.0 °F 100% 30.19 in 1.2 mi SSE 5.8 mph - N/A Rain Light Rain
12:42 AM 32.0 °F 26.4 °F 32.0 °F 100% 30.19 in 1.5 mi SSE 5.8 mph - N/A Rain Light Rain
12:44 AM 32.0 °F 27.5 °F 32.0 °F 100% 30.19 in 2.0 mi SSE 4.6 mph - N/A Rain Light Rain
12:46 AM 32.0 °F 25.6 °F 32.0 °F 100% 30.19 in 3.0 mi SSE 6.9 mph - N/A Rain Light Rain
12:58 AM 32.9 °F 27.5 °F 32.7 °F 99% 30.27 in 5.0 mi SSE 5.8 mph - 0.02 in Rain Light Rain
1:58 AM 32.7 °F 26.4 °F 32.5 °F 99% 30.27 in 5.0 mi SSE 6.9 mph - 0.01 in Rain Light Rain
2:38 AM 32.0 °F 28.7 °F 32.0 °F 100% 30.18 in 6.0 mi SSE 3.5 mph - N/A   Overcast
2:58 AM 32.7 °F 25.7 °F 32.5 °F 99% 30.26 in 5.0 mi South 8.1 mph - 0.02 in   Overcast
3:12 AM 32.0 °F 26.4 °F 32.0 °F 100% 30.17 in 2.5 mi South 5.8 mph - N/A   Overcast
3:14 AM 32.0 °F 26.4 °F 32.0 °F 100% 30.17 in 2.0 mi South 5.8 mph - N/A   Overcast
3:16 AM 32.0 °F 27.5 °F 32.0 °F 100% 30.17 in 1.5 mi South 4.6 mph - N/A   Overcast
3:17 AM 32.0 °F 27.5 °F 32.0 °F 100% 30.17 in 1.2 mi South 4.6 mph - N/A   Overcast
3:19 AM 32.0 °F 26.4 °F 32.0 °F 100% 30.17 in 1.0 mi South 5.8 mph - N/A   Mist
3:20 AM 32.0 °F 27.5 °F 32.0 °F 100% 30.17 in 1.0 mi South 4.6 mph - N/A Rain Light Rain
3:22 AM 32.0 °F 27.5 °F 32.0 °F 100% 30.17 in 0.8 mi South 4.6 mph - N/A Rain Light Rain
3:26 AM 32.0 °F 27.5 °F 32.0 °F 100% 30.17 in 0.5 mi South 4.6 mph - N/A Fog , Rain Light Rain
3:30 AM 32.0 °F 28.7 °F 32.0 °F 100% 30.17 in 0.5 mi South 3.5 mph - N/A Fog , Rain Light Rain
3:53 AM 32.0 °F 26.4 °F 32.0 °F 100% 30.16 in 0.5 mi SSE 5.8 mph - N/A Fog , Rain Light Rain
3:58 AM 33.1 °F 26.9 °F 32.9 °F 99% 30.24 in 0.5 mi SSE 6.9 mph - 0.00 in Fog , Rain Light Rain
4:00 AM 32.0 °F 25.6 °F 32.0 °F 100% 30.16 in 0.2 mi SSE 6.9 mph - N/A Fog , Rain Light Rain
4:01 AM 32.0 °F 26.4 °F 32.0 °F 100% 30.16 in 0.2 mi SSE 5.8 mph - N/A Fog , Rain Light Rain
4:54 AM 33.8 °F 28.6 °F 32.0 °F 93% 30.14 in 0.2 mi SSE 5.8 mph - N/A Fog Fog
4:58 AM 33.8 °F 28.6 °F 33.4 °F 99% 30.21 in 0.2 mi SSE 5.8 mph - 0.01 in Fog Fog
5:10 AM 33.8 °F 29.6 °F 33.8 °F 100% 30.14 in 0.2 mi South 4.6 mph - N/A Fog , Rain Light Rain
5:20 AM 33.8 °F 27.7 °F 33.8 °F 100% 30.14 in 0.2 mi South 6.9 mph - N/A Fog Fog
5:58 AM 34.9 °F 29.0 °F 34.7 °F 99% 30.20 in 0.2 mi SSE 6.9 mph - 0.00 in Fog Fog
6:51 AM 35.6 °F 29.2 °F 33.8 °F 93% 30.13 in 0.2 mi SSE 8.1 mph - N/A Fog Fog
6:55 AM 35.6 °F 29.2 °F 33.8 °F 93% 30.12 in 0.2 mi SSE 8.1 mph - N/A Fog Fog
6:58 AM 34.7 °F 28.1 °F 34.5 °F 99% 30.19 in 0.2 mi SSE 8.1 mph - N/A Fog Fog
7:14 AM 33.8 °F 27.0 °F 33.8 °F 100% 30.11 in 0.2 mi SE 8.1 mph - N/A Fog Fog
7:16 AM 33.8 °F 27.7 °F 33.8 °F 100% 30.11 in 0.5 mi SE 6.9 mph - N/A Fog Fog
7:26 AM 33.8 °F 26.4 °F 33.8 °F 100% 30.10 in 0.2 mi SSE 9.2 mph - N/A Fog Fog
7:32 AM 33.8 °F 26.4 °F 33.8 °F 100% 30.11 in 0.2 mi SSE 9.2 mph - N/A Fog Fog
7:36 AM 33.8 °F 26.4 °F 33.8 °F 100% 30.11 in 0.2 mi SSE 9.2 mph - N/A Fog Fog
7:58 AM 34.9 °F 29.0 °F 34.7 °F 99% 30.18 in 0.2 mi SSE 6.9 mph - N/A Fog Fog
8:08 AM 35.6 °F 29.2 °F 33.8 °F 93% 30.11 in 0.2 mi SSE 8.1 mph - N/A Fog Fog
8:10 AM 35.6 °F 29.2 °F 33.8 °F 93% 30.11 in 0.2 mi SSE 8.1 mph - N/A Fog Fog
8:20 AM 35.6 °F 28.6 °F 33.8 °F 93% 30.11 in 0.2 mi SSE 9.2 mph - N/A Fog Fog
8:24 AM 35.6 °F 29.2 °F 33.8 °F 93% 30.11 in 0.2 mi SSE 8.1 mph - N/A Fog Fog
8:26 AM 35.6 °F 29.2 °F 35.6 °F 100% 30.11 in 0.2 mi SSE 8.1 mph - N/A Fog Fog
8:28 AM 35.6 °F 29.2 °F 35.6 °F 100% 30.11 in 0.2 mi SSE 8.1 mph - N/A Fog Fog
8:49 AM 35.6 °F 28.6 °F 35.6 °F 100% 30.11 in 0.2 mi South 9.2 mph - N/A Fog Fog
8:51 AM 35.6 °F 28.0 °F 35.6 °F 100% 30.11 in 0.5 mi South 10.4 mph - N/A Fog Fog
8:52 AM 35.6 °F 28.0 °F 35.6 °F 100% 30.12 in 0.5 mi South 10.4 mph - N/A Fog Fog
8:58 AM 35.2 °F 27.6 °F 35.1 °F 99% 30.18 in 0.5 mi South 10.4 mph - N/A Fog Fog
9:02 AM 35.6 °F 27.1 °F 35.6 °F 100% 30.11 in 0.2 mi South 12.7 mph - N/A Fog Fog
9:07 AM 35.6 °F 26.6 °F 35.6 °F 100% 30.10 in 0.2 mi South 13.8 mph - N/A Fog Fog
9:12 AM 35.6 °F 27.1 °F 35.6 °F 100% 30.10 in 0.2 mi SSE 12.7 mph - N/A Fog Fog
9:32 AM 35.6 °F 25.5 °F 35.6 °F 100% 30.09 in 0.5 mi SSE 17.3 mph - N/A Fog Fog
9:36 AM 35.6 °F 26.2 °F 35.6 °F 100% 30.10 in 0.2 mi SSE 15.0 mph - N/A Fog Fog
9:40 AM 35.6 °F 27.1 °F 35.6 °F 100% 30.10 in 0.2 mi South 12.7 mph 21.9 mph N/A Fog Fog
9:50 AM 35.6 °F 27.1 °F 35.6 °F 100% 30.09 in 0.2 mi South 12.7 mph - N/A Fog Fog
9:58 AM 36.0 °F 27.1 °F 35.8 °F 99% 30.16 in 0.2 mi SSE 13.8 mph - 0.00 in Fog Fog
10:00 AM 35.6 °F 26.2 °F 35.6 °F 100% 30.09 in 0.2 mi SSE 15.0 mph - N/A Fog Fog
10:05 AM 35.6 °F 26.2 °F 35.6 °F 100% 30.09 in 0.2 mi South 15.0 mph 21.9 mph N/A Fog Fog
10:15 AM 35.6 °F 25.5 °F 35.6 °F 100% 30.09 in 0.2 mi SSE 17.3 mph - N/A Fog Fog
10:16 AM 35.6 °F 25.5 °F 35.6 °F 100% 30.09 in 0.2 mi SSE 17.3 mph - N/A Fog Fog
10:22 AM 35.6 °F 26.2 °F 35.6 °F 100% 30.08 in 0.2 mi SSE 15.0 mph - N/A Fog Fog
10:26 AM 35.6 °F 26.2 °F 35.6 °F 100% 30.08 in 0.2 mi SSE 15.0 mph - N/A Fog Fog
10:32 AM 37.4 °F 29.3 °F 35.6 °F 93% 30.08 in 0.2 mi SSE 12.7 mph - N/A Fog Fog
10:38 AM 37.4 °F 29.3 °F 35.6 °F 93% 30.08 in 0.2 mi SSE 12.7 mph - N/A Fog Fog
10:43 AM 37.4 °F 28.9 °F 37.4 °F 100% 30.08 in 0.2 mi SSE 13.8 mph 20.7 mph N/A Fog Fog
10:47 AM 37.4 °F 28.9 °F 37.4 °F 100% 30.08 in 0.2 mi South 13.8 mph - N/A Fog Fog
10:51 AM 37.4 °F 29.3 °F 37.4 °F 100% 30.08 in 0.5 mi South 12.7 mph - N/A Fog Fog
10:52 AM 37.4 °F 28.9 °F 37.4 °F 100% 30.08 in 0.5 mi South 13.8 mph - N/A Fog Fog
10:55 AM 37.4 °F 29.3 °F 37.4 °F 100% 30.07 in 0.8 mi South 12.7 mph - N/A   Mist
10:56 AM 37.4 °F 29.3 °F 37.4 °F 100% 30.07 in 0.8 mi South 12.7 mph - N/A   Mist
10:58 AM 37.4 °F 28.9 °F 37.4 °F 100% 30.14 in 1.0 mi South 13.8 mph - 0.00 in   Mist
10:59 AM 37.4 °F 28.5 °F 37.4 °F 100% 30.07 in 1.2 mi South 15.0 mph 20.7 mph N/A   Overcast
11:01 AM 37.4 °F 29.8 °F 37.4 °F 100% 30.07 in 1.8 mi South 11.5 mph 20.7 mph N/A   Overcast
11:03 AM 37.4 °F 28.9 °F 37.4 °F 100% 30.07 in 2.5 mi South 13.8 mph 20.7 mph N/A   Overcast
11:05 AM 37.4 °F 29.8 °F 37.4 °F 100% 30.07 in 4.0 mi South 11.5 mph 20.7 mph N/A   Overcast
11:16 AM 37.4 °F 28.9 °F 37.4 °F 100% 30.06 in 9.0 mi South 13.8 mph 20.7 mph N/A   Overcast
11:21 AM 37.4 °F 28.2 °F 37.4 °F 100% 30.06 in 10.0 mi South 16.1 mph 20.7 mph N/A   Overcast
11:42 AM 37.4 °F 28.2 °F 37.4 °F 100% 30.04 in 7.0 mi SSE 16.1 mph 21.9 mph N/A   Overcast
11:58 AM 37.4 °F 28.2 °F 37.2 °F 99% 30.11 in 8.0 mi South 16.1 mph - 0.00 in   Overcast
12:04 PM 37.4 °F 28.5 °F 37.4 °F 100% 30.04 in 8.0 mi SSE 15.0 mph - N/A   Overcast
12:05 PM 37.4 °F 28.2 °F 37.4 °F 100% 30.04 in 8.0 mi South 16.1 mph - N/A   Overcast
12:08 PM 37.4 °F 29.8 °F 37.4 °F 100% 30.04 in 8.0 mi South 11.5 mph - N/A   Overcast
12:24 PM 37.4 °F 29.3 °F 37.4 °F 100% 30.03 in 9.0 mi South 12.7 mph - N/A   Overcast
12:31 PM 37.4 °F 29.3 °F 37.4 °F 100% 30.02 in 9.0 mi South 12.7 mph - N/A   Overcast
12:58 PM 37.4 °F 28.5 °F 37.2 °F 99% 30.06 in 8.0 mi South 15.0 mph - 0.00 in Snow Light Snow
1:39 PM 37.4 °F 28.9 °F 37.4 °F 100% 29.96 in 10.0 mi South 13.8 mph - N/A   Overcast
1:58 PM 38.1 °F 28.8 °F 37.9 °F 99% 30.01 in 10.0 mi South 17.3 mph - 0.00 in   Overcast
2:08 PM 39.2 °F 29.3 °F 37.4 °F 93% 29.95 in 10.0 mi South 20.7 mph 27.6 mph N/A   Overcast
2:13 PM 39.2 °F 30.2 °F 39.2 °F 100% 29.95 in 10.0 mi SSE 17.3 mph - N/A   Overcast
2:22 PM 39.2 °F 29.3 °F 39.2 °F 100% 29.94 in 10.0 mi South 20.7 mph 25.3 mph N/A   Overcast
2:52 PM 39.2 °F 30.2 °F 39.2 °F 100% 29.95 in 10.0 mi South 17.3 mph - N/A   Overcast
2:58 PM 39.4 °F 29.5 °F 39.2 °F 99% 30.01 in 10.0 mi South 20.7 mph - 0.00 in   Overcast
3:11 PM 39.2 °F 29.8 °F 39.2 °F 100% 29.97 in 10.0 mi South 18.4 mph 25.3 mph N/A   Overcast
3:16 PM 39.2 °F 30.5 °F 39.2 °F 100% 29.97 in 10.0 mi South 16.1 mph 25.3 mph N/A   Overcast
3:17 PM 39.2 °F 30.5 °F 39.2 °F 100% 29.97 in 10.0 mi South 16.1 mph 25.3 mph N/A   Overcast
3:27 PM 39.2 °F 29.6 °F 39.2 °F 100% 29.97 in 10.0 mi South 19.6 mph 25.3 mph N/A   Mostly Cloudy
3:33 PM 39.2 °F 30.8 °F 39.2 °F 100% 29.97 in 10.0 mi South 15.0 mph 25.3 mph N/A   Mostly Cloudy
3:43 PM 39.2 °F 29.6 °F 39.2 °F 100% 29.97 in 10.0 mi South 19.6 mph - N/A   Scattered Clouds
3:58 PM 39.4 °F 29.5 °F 39.2 °F 99% 30.04 in 10.0 mi South 20.7 mph 26.5 mph 0.00 in   Partly Cloudy
4:01 PM 39.2 °F 29.6 °F 39.2 °F 100% 29.98 in 10.0 mi South 19.6 mph 26.5 mph N/A   Scattered Clouds
4:26 PM 37.4 °F 26.9 °F 37.4 °F 100% 30.00 in 10.0 mi WSW 20.7 mph 28.8 mph N/A   Overcast
4:31 PM 37.4 °F 27.5 °F 35.6 °F 93% 30.00 in 9.0 mi SW 18.4 mph - N/A   Overcast
4:36 PM 35.6 °F 25.9 °F 35.6 °F 100% 30.00 in 5.0 mi SW 16.1 mph - N/A   Overcast
4:41 PM 35.6 °F 25.2 °F 35.6 °F 100% 30.01 in 3.0 mi SW 18.4 mph - N/A   Overcast
4:43 PM 35.6 °F 25.5 °F 35.6 °F 100% 30.01 in 3.0 mi SW 17.3 mph - N/A   Overcast
4:58 PM 34.5 °F 23.8 °F 34.2 °F 99% 30.08 in 8.0 mi SSW 18.4 mph - 0.00 in   Overcast
5:08 PM 33.8 °F 23.5 °F 32.0 °F 93% 30.00 in 9.0 mi SSW 16.1 mph - N/A   Overcast
5:22 PM 32.0 °F 22.5 °F 32.0 °F 100% 30.02 in 10.0 mi SW 12.7 mph - N/A   Mostly Cloudy
5:32 PM 32.0 °F 20.5 °F 32.0 °F 100% 30.02 in 10.0 mi SSW 18.4 mph - N/A   Scattered Clouds
5:58 PM 33.1 °F 23.0 °F 32.9 °F 99% 30.11 in 10.0 mi SSW 15.0 mph - 0.00 in   Partly Cloudy
6:00 PM 32.0 °F 21.2 °F 32.0 °F 100% 30.05 in 10.0 mi SSW 16.1 mph - N/A   Scattered Clouds
6:58 PM 31.5 °F 20.5 °F 31.1 °F 99% 30.16 in 10.0 mi SSW 16.1 mph - N/A   Clear
7:58 PM 30.7 °F 21.4 °F 30.4 °F 99% 30.19 in 10.0 mi SW 11.5 mph - N/A   Clear
8:58 PM 31.3 °F 20.3 °F 31.1 °F 99% 30.24 in 10.0 mi SW 16.1 mph - N/A   Mostly Cloudy
9:58 PM 30.7 °F 20.0 °F 27.5 °F 88% 30.27 in 10.0 mi SW 15.0 mph - N/A   Clear
10:58 PM 30.4 °F 19.5 °F 27.0 °F 87% 30.32 in 10.0 mi SW 15.0 mph - N/A   Clear
11:58 PM 28.6 °F 20.7 °F 25.7 °F 89% 30.35 in 10.0 mi SW 8.1 mph - N/A   Clear